Flag for Antigua and Barbuda Weather past 2 weeks in Saint John's, Antigua and Barbuda

Now
81 °F

Passing clouds.


Feels Like: 84 °F
Forecast: 77 / 84 °F
Wind: 3 mph from Southeast

Location: Vc Bird International Antigua Airport

Current Time: May 27, 2015 at 8:59:09 AM

Latest Report: May 27, 2015 at 8:00 AM


Visibility: N/A

Pressure: 29.98 "Hg

Humidity: 70%

Dew point: 70 °F

Location of Saint John'sLocation

Historic Weather in Saint John's — Graph

°F

Saint John's temperature yesterday

Maximum temperature yesterday: 84 °F (at 10:00 AM)
Minimum temperature yesterday: 73 °F (at 11:00 PM)
Average temperature yesterday: 79 °F

Past Weeks' High & Low Weather Summary

 TemperatureHumidityPressure
High88 °F (May 21, 12:00 PM)94% (May 27, 2:00 AM)30.12 "Hg (May 27, 2:00 AM)
Low72 °F (May 27, 3:00 AM)58% (May 13, 2:00 PM)29.95 "Hg (May 20, 3:00 AM)
Average81 °F72%30.03 "Hg
* Reported May 12 8:00 AM — May 27 8:00 AM, Saint John's, Weather by CustomWeather, © 2015

Note: Actual official high and low records may vary slightly from our data, if they occured in-between our weather recording intervals... More about our weather records

Advertising

Saint John's weather history for previous 24 hours

 ConditionsComfort  
Time TempWeatherWind HumidityBarometerVisibility
8:00 AM
Wed, May 27
81 °FPassing clouds.3 mph70%29.98 "HgN/A
7:00 AM77 °FPassing clouds.No wind83%29.95 "HgN/A
6:00 AM73 °FPassing clouds.2 mph89%29.95 "HgN/A
5:00 AM72 °FPassing clouds.2 mph94%29.95 "HgN/A
4:00 AM73 °FPassing clouds.2 mph89%29.95 "HgN/A
3:00 AM72 °FPassing clouds.3 mph94%29.95 "HgN/A
2:00 AM73 °FPassing clouds.No wind94%29.95 "HgN/A
1:00 AM73 °FPassing clouds.2 mph89%29.95 "HgN/A
12:00 AM75 °FPassing clouds.No wind89%29.98 "HgN/A
11:00 PM
Tue, May 26
73 °FSprinkles. Passing clouds.3 mph89%30.01 "HgN/A
10:00 PM75 °FPassing clouds.2 mph83%30.01 "HgN/A
9:00 PM75 °FPassing clouds.3 mph83%30.01 "HgN/A
8:00 PM77 °FPassing clouds.3 mph79%29.98 "HgN/A
7:00 PM77 °FPassing clouds.1 mph79%29.98 "HgN/A
6:00 PM79 °FScattered clouds.3 mph74%29.98 "HgN/A
5:00 PM77 °FPartly sunny.5 mph83%29.98 "HgN/A
4:00 PM77 °FScattered showers. Broken clouds.8 mph83%29.95 "HgN/A
3:00 PM82 °FScattered showers. Partly sunny.7 mph66%29.98 "HgN/A
1:00 PM81 °FScattered clouds.6 mph70%29.98 "HgN/A
12:00 PM84 °FScattered showers. Scattered clouds.9 mph62%30.01 "HgN/A
11:00 AM84 °FScattered showers. Passing clouds.9 mph62%30.01 "HgN/A
10:00 AM84 °FPassing clouds.9 mph62%30.01 "HgN/A
9:00 AM82 °FPassing clouds.9 mph66%30.01 "HgN/A
8:00 AM79 °FScattered clouds.5 mph74%30.01 "HgN/A
Weather by CustomWeather, © 2015

See weather overviewHow to use our weather pages